Hourly Data Report for October 26, 2016

All times are specified in Local Standard Time (LST). Add 1 hour to adjust for Daylight Saving Time where and when it is observed.

BAKER LAKE A
NUNAVUT

64°17'56.000" N
96°04'40.000" W
18.60 m
2300503
71926
YBK

Download Data

Hourly Data (October 2016)
Hourly Data Report for October 26, 2016
Temp Definition
°C
Dew Point Temp Definition
°C
Rel Hum Definition
%
Wind Dir Definition
10's deg

Wind Spd Definition
km/h
Visibility Definition
km
Stn Press Definition
kPa
Hmdx Definition


Wind Chill Definition


Weather Definition


TIME
00:00 Legend Double Dagger -5.6 -6.4 94 36 1 9.7 102.36   -6 Cloudy
01:00 Legend Double Dagger -5.7 -6.5 94 0 1 9.7 102.31   -6 LegendNANA
02:00 Legend Double Dagger -5.5 -6.3 94 0 1 12.9 102.26   -6 LegendNANA
03:00 Legend Double Dagger -5.6 -6.4 94 18 4 16.1 102.22   -7 Cloudy
04:00 Legend Double Dagger -6.1 -6.9 94 24 4 24.1 102.19   -8 LegendNANA
05:00 Legend Double Dagger -5.5 -6.3 94 20 6 3.2 102.14   -8 Fog
06:00 Legend Double Dagger -4.7 -5.4 95 25 14 24.1 102.10   -10 Cloudy
07:00 Legend Double Dagger -5.1 -5.9 94 26 9 24.1 102.07   -9 LegendNANA
08:00 Legend Double Dagger -4.9 -5.7 94 27 18 24.1 102.04   -11 LegendNANA
09:00 Legend Double Dagger -5.7 -6.5 94 28 18 16.1 102.04   -12 Mostly Cloudy
10:00 Legend Double Dagger -7.1 -8.2 92 29 21 24.1 102.01   -14 LegendNANA
11:00 Legend Double Dagger -6.7 -7.7 93 28 22 12.9 101.93   -14 LegendNANA
12:00 Legend Double Dagger -7.8 -8.9 92 30 17 24.1 101.93   -14 Mainly Clear
13:00 Legend Double Dagger -7.9 -9.1 91 11 5 32.2 101.94   -11 LegendNANA
14:00 Legend Double Dagger -8.0 -9.2 91 36 1 32.2 101.91   -9 LegendNANA
15:00 Legend Double Dagger -7.5 -8.7 91 28 27 32.2 101.85   -16 Mainly Clear
16:00 Legend Double Dagger -8.3 -9.5 91 29 25 32.2 101.84   -17 LegendNANA
17:00 Legend Double Dagger -10.3 -11.6 90 24 8 16.1 101.88   -15 LegendNANA
18:00 Legend Double Dagger -9.4 -10.6 91 24 3 24.1 101.86   -11 Mostly Cloudy
19:00 Legend Double Dagger -7.6 -8.8 91 25 8 24.1 101.79   -12 LegendNANA
20:00 Legend Double Dagger -8.0 -9.2 91 15 4 24.1 101.72   -10 LegendNANA
21:00 Legend Double Dagger -5.5 -6.6 92 22 20 24.1 101.69   -12 Cloudy
22:00 Legend Double Dagger -5.4 -6.8 90 24 13 24.1 101.67   -11 Snow
23:00 Legend Double Dagger -4.9 -6.4 89 25 13 24.1 101.67   -10 Snow

Notes on Data Quality.

Legend

  • E = Estimated
  • M = Missing
  • NA = Not Available
  • ‡ = Partner data that is not subject to review by the National Climate Archives
Date modified: